TimeCST,TemperatureF,Dew PointF,Humidity,Sea Level PressureIn,VisibilityMPH,Wind Direction,Wind SpeedMPH,Gust SpeedMPH,PrecipitationIn,Events,Conditions,WindDirDegrees,DateUTC
12:53 AM,19.0,12.0,74,30.14,10.0,SE,8.1,-,N/A,,Overcast,140,2013-03-03 06:53:00
1:53 AM,19.0,12.0,74,30.13,10.0,SSE,6.9,-,N/A,,Overcast,160,2013-03-03 07:53:00
2:53 AM,19.0,12.0,74,30.11,10.0,SE,8.1,-,N/A,,Overcast,140,2013-03-03 08:53:00
3:53 AM,18.0,12.0,78,30.09,10.0,SE,8.1,-,N/A,,Partly Cloudy,130,2013-03-03 09:53:00
4:53 AM,17.1,12.0,81,30.09,10.0,ESE,9.2,-,N/A,,Clear,110,2013-03-03 10:53:00
5:53 AM,16.0,10.9,81,30.10,10.0,ESE,10.4,-,N/A,,Clear,120,2013-03-03 11:53:00
6:53 AM,16.0,9.0,74,30.09,10.0,ESE,11.5,-,N/A,,Clear,120,2013-03-03 12:53:00
7:53 AM,16.0,9.0,74,30.08,10.0,SE,12.7,-,N/A,,Clear,130,2013-03-03 13:53:00
8:53 AM,18.0,10.0,71,30.07,10.0,SE,11.5,-,N/A,,Clear,130,2013-03-03 14:53:00
9:53 AM,19.9,12.0,71,30.06,10.0,SE,16.1,-,N/A,,Clear,130,2013-03-03 15:53:00
10:53 AM,23.0,14.0,68,30.05,10.0,SE,17.3,-,N/A,,Clear,130,2013-03-03 16:53:00
11:53 AM,25.0,16.0,69,30.03,10.0,ESE,17.3,25.3,N/A,,Clear,120,2013-03-03 17:53:00
12:53 PM,26.1,17.1,69,30.01,10.0,SE,21.9,29.9,N/A,,Clear,130,2013-03-03 18:53:00
1:53 PM,27.0,16.0,63,29.99,10.0,SE,16.1,-,N/A,,Clear,130,2013-03-03 19:53:00
2:53 PM,27.0,12.0,53,29.98,10.0,SE,16.1,25.3,N/A,,Clear,130,2013-03-03 20:53:00
3:53 PM,27.0,10.0,49,29.97,10.0,ESE,20.7,27.6,N/A,,Mostly Cloudy,120,2013-03-03 21:53:00
4:53 PM,27.0,10.9,51,29.97,10.0,SE,13.8,24.2,N/A,,Overcast,130,2013-03-03 22:53:00
5:53 PM,27.0,12.0,53,29.97,10.0,ESE,15.0,-,N/A,,Overcast,120,2013-03-03 23:53:00
6:53 PM,27.0,12.0,53,29.96,10.0,ESE,16.1,-,N/A,,Overcast,110,2013-03-04 00:53:00
7:53 PM,27.0,12.0,53,29.97,10.0,ESE,17.3,-,N/A,,Overcast,120,2013-03-04 01:53:00
8:53 PM,26.1,10.0,51,29.96,10.0,ESE,15.0,-,N/A,,Overcast,120,2013-03-04 02:53:00
9:53 PM,25.0,12.0,58,29.95,10.0,ESE,17.3,23.0,N/A,,Overcast,120,2013-03-04 03:53:00
10:53 PM,25.0,12.0,58,29.94,10.0,ESE,17.3,-,N/A,,Mostly Cloudy,120,2013-03-04 04:53:00
11:53 PM,25.0,12.9,60,29.95,10.0,SE,16.1,27.6,N/A,,Overcast,130,2013-03-04 05:53:00